Fairfield, IL

8:57 PM CST on December 14, 2019 (GMT -0600)
Fairfield Municipal

Weather History for KFWC - October, 2019

Change the Weather History Date:

Wednesday, October 30, 2019

  Actual Average (KEVV) Record (KEVV)
Temperature  
Mean Temperature 46 °F -  
Max Temperature 50 °F 65 °F 85 °F (1950)
Min Temperature 43 °F 42 °F 26 °F (1965)
Degree Days  
Heating Degree Days 19    
Moisture  
Dew Point 46 °F    
Average Humidity 100    
Maximum Humidity 100    
Minimum Humidity 98    
Precipitation  
Precipitation 0.06 in - - ()
Sea Level Pressure  
Sea Level Pressure 30.01 in    
Wind  
Wind Speed 5 mph ()    
Max Wind Speed 9 mph    
Max Gust Speed -    
Visibility 3.9 miles    
Events Rain    
Averages and records for this station are not official NWS values.
T = Trace of Precipitation, MM = Missing Value Source: Averaged Metar Reports

Daily Weather History Graph

Daily Weather History Graph

Search for Another Location

Airport or City:

Astronomy

Oct. 30, 2019 Rise Set
Actual Time 7:17 AM CDT 5:56 PM CDT
Civil Twilight 6:50 AM CDT 6:23 PM CDT
Nautical Twilight 6:19 AM CDT 6:54 PM CDT
Astronomical Twilight 5:48 AM CDT 7:25 PM CDT
Moon 9:58 AM CDT (10/30) 8:05 PM CDT (10/30)
Length of Visible Light 11h 33m
Length of Day
10h 38m
Waxing Crescent, 9% of the Moon is Illuminated
Oct 30
Waxing Crescent
Nov 4
First Quarter
Nov 12
Full
Nov 19
Last Quarter
Nov 26
New

Hourly Weather History & Observations

Time (CDT) Temp. Windchill Dew Point Humidity Pressure Visibility Wind Dir Wind Speed Gust Speed Precip Events Conditions
12:15 AM 43.9 °F 39.9 °F 43.3 °F 98% 30.18 in 7.0 mi North 6.9 mph - N/A   Overcast
12:35 AM 43.7 °F 39.7 °F 43.7 °F 100% 30.18 in 5.0 mi North 6.9 mph - N/A   Overcast
12:55 AM 43.7 °F 39.7 °F 43.7 °F 100% 30.17 in 5.0 mi North 6.9 mph - N/A   Overcast
1:15 AM 43.9 °F 39.9 °F 43.9 °F 100% 30.17 in 5.0 mi North 6.9 mph - N/A   Overcast
1:35 AM 43.9 °F 39.9 °F 43.9 °F 100% 30.17 in 5.0 mi North 6.9 mph - N/A   Overcast
1:55 AM 43.7 °F 39.1 °F 43.7 °F 100% 30.17 in 5.0 mi NNE 8.1 mph - 0.01 in Rain Light Rain
2:15 AM 43.7 °F 40.3 °F 43.7 °F 100% 30.17 in 7.0 mi NNE 5.8 mph - N/A Rain Light Rain
2:35 AM 43.7 °F 40.3 °F 43.7 °F 100% 30.15 in 5.0 mi NNE 5.8 mph - N/A   Overcast
3:15 AM 43.9 °F 39.3 °F 43.9 °F 100% 30.12 in 7.0 mi NE 8.1 mph - N/A   Overcast
3:35 AM 43.9 °F 38.8 °F 43.9 °F 100% 30.10 in 7.0 mi NE 9.2 mph - N/A   Overcast
3:55 AM 44.2 °F 39.7 °F 44.2 °F 100% 30.11 in 7.0 mi NE 8.1 mph - N/A   Overcast
4:15 AM 44.6 °F 40.7 °F 44.6 °F 100% 30.11 in 7.0 mi NNE 6.9 mph - N/A   Overcast
4:35 AM 44.6 °F 41.4 °F 44.6 °F 100% 30.10 in 5.0 mi NNE 5.8 mph - N/A   Overcast
4:55 AM 44.6 °F 42.2 °F 44.6 °F 100% 30.11 in 5.0 mi NNE 4.6 mph - N/A   Overcast
5:15 AM 44.8 °F 41.6 °F 44.8 °F 100% 30.10 in 4.0 mi NNE 5.8 mph - N/A   Overcast
5:35 AM 45.0 °F 42.6 °F 45.0 °F 100% 30.10 in 4.0 mi NE 4.6 mph - N/A Rain Light Rain
5:55 AM 45.3 °F 43.0 °F 45.3 °F 100% 30.10 in 4.0 mi NNE 4.6 mph - N/A Rain Light Rain
6:15 AM 45.5 °F 42.5 °F 45.5 °F 100% 30.08 in 4.0 mi NNE 5.8 mph - N/A Rain Light Rain
6:35 AM 45.5 °F 43.2 °F 45.5 °F 100% 30.09 in 3.0 mi North 4.6 mph - 0.01 in Rain Light Rain
6:55 AM 45.5 °F 43.2 °F 45.5 °F 100% 30.07 in 3.0 mi NNE 4.6 mph - 0.02 in Rain Light Rain
7:15 AM 45.5 °F 43.2 °F 45.5 °F 100% 30.07 in 4.0 mi North 4.6 mph - N/A   Light Drizzle
7:35 AM 45.7 °F 44.4 °F 45.7 °F 100% 30.07 in 4.0 mi North 3.5 mph - N/A   Light Drizzle
7:55 AM 45.7 °F 43.4 °F 45.7 °F 100% 30.07 in 2.5 mi North 4.6 mph - N/A   Overcast
8:15 AM 45.7 °F 43.4 °F 45.7 °F 100% 30.06 in 3.0 mi North 4.6 mph - N/A   Overcast
8:35 AM 45.9 °F 42.9 °F 45.9 °F 100% 30.07 in 3.0 mi North 5.8 mph - N/A Rain Light Rain
8:55 AM 46.0 °F 43.1 °F 46.0 °F 100% 30.07 in 3.0 mi North 5.8 mph - 0.01 in   Light Drizzle
9:15 AM 46.0 °F 41.9 °F 46.0 °F 100% 30.06 in 3.0 mi North 8.1 mph - N/A Rain Light Rain
9:35 AM 46.4 °F 42.9 °F 46.4 °F 100% 30.06 in 4.0 mi North 6.9 mph - N/A   Light Drizzle
9:55 AM 46.4 °F 43.5 °F 46.4 °F 100% 30.04 in 4.0 mi North 5.8 mph - N/A   Overcast
10:15 AM 46.4 °F 42.9 °F 46.4 °F 100% 30.05 in 3.0 mi North 6.9 mph - N/A   Overcast
10:35 AM 46.6 °F - 46.6 °F 100% 30.04 in 3.0 mi North 5.8 mph - N/A Rain Light Rain
10:55 AM 46.8 °F - 46.8 °F 100% 30.04 in 2.5 mi North 5.8 mph - N/A   Overcast
11:15 AM 46.9 °F - 46.9 °F 100% 30.03 in 2.5 mi North 5.8 mph - N/A   Overcast
11:35 AM 47.3 °F - 47.3 °F 100% 30.06 in 2.5 mi North 4.6 mph - N/A   Overcast
11:55 AM 47.3 °F - 47.3 °F 100% 30.04 in 2.5 mi North 4.6 mph - N/A   Overcast
12:15 PM 46.9 °F - 46.9 °F 100% 30.01 in 3.0 mi North 5.8 mph - N/A   Overcast
12:35 PM 47.3 °F - 47.3 °F 100% 29.99 in 2.5 mi North 9.2 mph - N/A   Overcast
12:55 PM 47.3 °F - 47.3 °F 100% 29.99 in 2.5 mi North 5.8 mph - N/A   Overcast
1:15 PM 47.7 °F - 47.7 °F 100% 29.95 in 2.5 mi NE 5.8 mph - N/A   Overcast
1:35 PM 48.0 °F - 48.0 °F 100% 29.94 in 2.5 mi North 4.6 mph - N/A   Overcast
2:15 PM 49.5 °F - 49.5 °F 100% 29.94 in 3.0 mi NNE 4.6 mph - N/A   Overcast
2:35 PM 49.6 °F - 49.6 °F 100% 29.95 in 4.0 mi NW 3.5 mph - N/A   Overcast
2:55 PM 49.8 °F - 49.8 °F 100% 29.94 in 4.0 mi NNW 3.5 mph - N/A   Overcast
3:15 PM 49.5 °F - 49.5 °F 100% 29.94 in 4.0 mi Calm Calm - N/A Rain Rain
3:35 PM 49.6 °F - 49.6 °F 100% 29.93 in 5.0 mi NNW 3.5 mph - N/A Rain Light Rain
3:55 PM 49.3 °F - 49.3 °F 100% 29.92 in 5.0 mi NNW 3.5 mph - N/A   Light Drizzle
4:15 PM 49.1 °F - 49.1 °F 100% 29.93 in 5.0 mi North 3.5 mph - N/A Rain Light Rain
4:35 PM 49.1 °F - 49.1 °F 100% 29.93 in 7.0 mi Calm Calm - N/A   Overcast
4:55 PM 49.1 °F - 49.1 °F 100% 29.93 in 7.0 mi Calm Calm - N/A   Overcast
5:15 PM 49.1 °F - 49.1 °F 100% 29.94 in 7.0 mi Calm Calm - N/A   Overcast
5:35 PM 48.6 °F - 48.6 °F 100% 29.94 in 4.0 mi Calm Calm - N/A   Overcast
5:55 PM 47.8 °F - 47.8 °F 100% 29.95 in 2.5 mi NW 3.5 mph - N/A Rain Light Rain
6:15 PM 47.1 °F - 47.1 °F 100% 29.94 in 2.0 mi NW 3.5 mph - N/A   Light Drizzle
6:35 PM 46.8 °F - 46.8 °F 100% 29.94 in 2.5 mi NW 3.5 mph - N/A   Overcast
6:55 PM 46.6 °F - 46.6 °F 100% 29.94 in 1.8 mi Calm Calm - N/A   Drizzle
7:15 PM 46.4 °F 45.2 °F 46.4 °F 100% 29.94 in 2.5 mi NW 3.5 mph - N/A   Overcast
7:35 PM 46.0 °F 44.8 °F 46.0 °F 100% 29.93 in 1.8 mi NNW 3.5 mph - N/A Rain Light Rain
7:55 PM 46.0 °F 44.8 °F 46.0 °F 100% 29.92 in 2.5 mi NNW 3.5 mph - N/A Rain Light Rain
8:15 PM 45.7 °F 44.4 °F 45.7 °F 100% 29.94 in 2.5 mi NW 3.5 mph - N/A   Overcast
8:35 PM 45.5 °F 44.2 °F 45.5 °F 100% 29.92 in 2.0 mi NNW 3.5 mph - N/A   Overcast
8:55 PM 45.5 °F - 45.5 °F 100% 29.92 in 3.0 mi Calm Calm - N/A   Overcast
9:15 PM 45.5 °F 44.2 °F 45.5 °F 100% 29.91 in 4.0 mi NNW 3.5 mph - N/A   Overcast
9:35 PM 45.5 °F - 45.5 °F 100% 29.92 in 3.0 mi Calm Calm - N/A   Light Drizzle
9:55 PM 45.5 °F - 45.5 °F 100% 29.90 in 4.0 mi Calm Calm - N/A   Light Drizzle
10:15 PM 45.5 °F 44.2 °F 45.5 °F 100% 29.89 in 4.0 mi North 3.5 mph - N/A   Light Drizzle
10:35 PM 45.5 °F - 45.5 °F 100% 29.89 in 5.0 mi Calm Calm - N/A   Light Drizzle
10:55 PM 45.3 °F - 45.3 °F 100% 29.89 in 5.0 mi Calm Calm - N/A   Overcast
11:15 PM 45.1 °F - 45.1 °F 100% 29.88 in 3.0 mi Calm Calm - 0.01 in   Heavy Drizzle
11:35 PM 45.0 °F - 45.0 °F 100% 29.86 in 2.5 mi Calm Calm - 0.01 in   Drizzle
11:55 PM 45.0 °F - 45.0 °F 100% 29.84 in 4.0 mi Calm Calm - 0.02 in   Light Drizzle